CW9363 Weather Reports


Display with metric or nautical units.
time (UTC)temp
F
wind
direction
speed
MPH
gust
MPH
rain 1hr
in
rain 24hr
in
rain mn
in
humidity
%
barometer
mb
20260507040231 54 346 0.0 2.0 0.00 0.00 0.00 84 1023.4
20260507035727 54 0 0.0 3.0 0.00 0.00 0.00 83 1023.5
20260507035223 54 353 2.0 3.0 0.00 0.00 0.00 83 1023.4
20260507034721 54 343 2.0 3.0 0.00 0.00 0.00 83 1023.5
20260507034218 54 0 0.0 2.0 0.00 0.00 0.00 83 1023.4
20260507033716 54 297 0.0 3.0 0.00 0.00 0.00 83 1023.2
20260507033213 54 285 0.0 3.0 0.00 0.00 0.00 83 1023.2
20260507032710 54 300 0.0 1.0 0.00 0.00 0.00 84 1023.2
20260507032206 54 348 2.0 2.0 0.00 0.00 0.00 84 1023.3
20260507031703 54 308 0.0 2.0 0.00 0.00 0.00 84 1023.2
20260507031159 54 12 0.0 1.0 0.00 0.00 0.00 83 1023.1
20260507030650 54 15 2.0 3.0 0.00 0.00 0.00 83 1023.1
20260507030149 54 344 2.0 2.0 0.00 0.00 0.00 83 1022.9
20260507025645 54 40 0.0 2.0 0.00 0.00 0.00 83 1022.9
20260507025142 55 0 0.0 2.0 0.00 0.00 0.00 82 1023.0
20260507024640 55 0 0.0 3.0 0.00 0.00 0.00 82 1022.8
20260507024137 55 0 0.0 3.0 0.00 0.00 0.00 82 1022.8
20260507023632 55 0 2.0 2.0 0.00 0.00 0.00 81 1022.8
20260507023130 55 12 2.0 2.0 0.00 0.00 0.00 81 1022.7
20260507022627 56 4 0.0 5.0 0.00 0.00 0.00 81 1022.7
20260507022122 56 66 0.0 1.0 0.00 0.00 0.00 80 1022.7
20260507021619 56 18 2.0 3.0 0.00 0.00 0.00 80 1022.6
20260507021115 56 240 0.0 2.0 0.00 0.00 0.00 80 1022.7
20260507020613 56 11 2.0 3.0 0.00 0.00 0.00 79 1022.7
20260507020109 56 356 2.0 5.0 0.00 0.00 0.00 79 1023.0
20260507015608 56 32 1.0 2.0 0.00 0.00 0.00 80 1022.6
20260507015104 56 0 1.0 3.0 0.00 0.00 0.00 79 1022.7
20260507014601 56 346 3.0 3.0 0.00 0.00 0.00 79 1022.7
20260507014051 56 337 0.0 4.0 0.00 0.00 0.00 79 1022.6
20260507013548 57 82 0.0 3.0 0.00 0.00 0.00 79 1022.6
20260507013045 57 324 3.0 5.0 0.00 0.00 0.00 78 1022.5
20260507012542 57 279 0.0 3.0 0.00 0.00 0.00 78 1022.5
20260507012038 57 0 0.0 3.0 0.00 0.00 0.00 78 1022.5
20260507011536 57 356 2.0 4.0 0.00 0.00 0.00 77 1022.6
20260507011031 58 328 0.0 3.0 0.00 0.00 0.00 76 1022.5
20260507010526 58 270 0.0 4.0 0.00 0.00 0.00 76 1022.4
20260507010023 59 342 0.0 5.0 0.00 0.00 0.00 75 1022.3
20260507005521 59 279 2.0 5.0 0.00 0.00 0.00 75 1022.6
20260507005017 59 0 0.0 5.0 0.00 0.00 0.00 75 1022.4
20260507004514 59 329 3.0 4.0 0.00 0.00 0.00 74 1022.6
20260507004012 59 334 0.0 7.0 0.00 0.00 0.00 74 1022.4
20260507003507 60 14 0.0 4.0 0.00 0.00 0.00 74 1022.6
20260507003001 59 312 2.0 4.0 0.00 0.00 0.00 74 1022.5
20260507002458 60 352 2.0 3.0 0.00 0.00 0.00 75 1022.8
20260507001955 60 342 0.0 4.0 0.00 0.00 0.00 74 1022.7
20260507001452 60 286 2.0 3.0 0.00 0.00 0.00 74 1022.5
20260507000949 60 270 0.0 5.0 0.00 0.00 0.00 74 1022.8
20260507000445 60 285 0.0 6.0 0.00 0.00 0.00 74 1022.7
20260506235940 60 292 2.0 5.0 0.00 0.00 0.00 73 1022.6
20260506235438 61 281 3.0 7.0 0.00 0.00 0.00 72 1022.7
20260506234933 61 326 4.0 4.0 0.00 0.00 0.00 72 1022.6
20260506234432 61 327 2.0 4.0 0.00 0.00 0.00 72 1022.6
20260506233929 61 279 0.0 6.0 0.00 0.00 0.00 72 1022.5
20260506233425 61 332 5.0 6.0 0.00 0.00 0.00 72 1022.5
20260506232922 61 351 0.0 5.0 0.00 0.00 0.00 72 1022.6
20260506232418 61 0 0.0 3.0 0.00 0.00 0.00 72 1022.4
20260506231914 61 346 0.0 4.0 0.00 0.00 0.00 72 1022.4
20260506231412 61 352 0.0 3.0 0.00 0.00 0.00 71 1022.3
20260506230909 61 12 2.0 3.0 0.00 0.00 0.00 72 1022.5
20260506230405 61 0 0.0 4.0 0.00 0.00 0.00 72 1022.5
20260506225902 62 312 2.0 5.0 0.00 0.00 0.00 69 1022.6
20260506225359 62 285 2.0 3.0 0.00 0.00 0.00 69 1022.6
20260506224856 63 32 2.0 5.0 0.00 0.00 0.00 68 1022.5
20260506224354 62 348 2.0 3.0 0.00 0.00 0.00 67 1022.7
20260506223849 63 328 0.0 2.0 0.00 0.00 0.00 68 1022.5
20260506223345 62 325 1.0 3.0 0.00 0.00 0.00 68 1022.7
20260506222842 62 303 0.0 3.0 0.00 0.00 0.00 68 1022.5
20260506222338 63 279 0.0 2.0 0.00 0.00 0.00 68 1022.7
20260506221836 63 225 3.0 3.0 0.00 0.00 0.00 70 1022.9
20260506221333 62 0 2.0 5.0 0.00 0.00 0.00 70 1022.8
20260506220831 61 341 0.0 5.0 0.00 0.00 0.00 70 1022.8
20260506220326 62 304 0.0 3.0 0.00 0.00 0.00 69 1023.0
20260506215823 62 2 3.0 4.0 0.00 0.00 0.00 68 1022.8
20260506215318 62 292 2.0 5.0 0.00 0.00 0.00 69 1022.9
20260506214809 61 244 5.0 5.0 0.00 0.00 0.00 72 1023.0
20260506214306 61 286 1.0 3.0 0.00 0.00 0.00 69 1022.8
20260506213804 62 355 3.0 3.0 0.00 0.00 0.00 70 1022.7
20260506213300 62 225 3.0 7.0 0.00 0.00 0.00 69 1022.8
20260506212758 62 237 2.0 6.0 0.00 0.00 0.00 69 1022.9
20260506212254 61 353 2.0 6.0 0.00 0.00 0.00 68 1022.8
20260506211749 62 262 1.0 5.0 0.00 0.00 0.00 70 1022.9
20260506211246 62 266 0.0 4.0 0.00 0.00 0.00 71 1022.7
20260506210743 62 350 3.0 5.0 0.00 0.00 0.00 72 1022.7
20260506210239 61 270 2.0 8.0 0.00 0.00 0.00 72 1022.8
20260506205737 62 338 2.0 6.0 0.00 0.00 0.00 71 1022.8
20260506205232 62 254 3.0 5.0 0.00 0.00 0.00 71 1022.6
20260506204729 61 243 2.0 7.0 0.00 0.00 0.00 73 1022.6
20260506204227 61 255 1.0 5.0 0.00 0.00 0.00 74 1022.7
20260506203724 61 353 6.0 9.0 0.00 0.00 0.00 73 1022.6
20260506203216 61 294 0.0 4.0 0.00 0.00 0.00 74 1022.3
20260506202713 61 344 4.0 5.0 0.00 0.00 0.00 74 1022.3
20260506202208 60 337 3.0 4.0 0.00 0.00 0.00 76 1022.5
20260506201701 58 315 3.0 9.0 0.00 0.00 0.00 79 1022.3
20260506201157 58 345 5.0 6.0 0.00 0.00 0.00 81 1022.4
20260506200654 58 356 4.0 7.0 0.00 0.00 0.00 82 1022.3
20260506200150 58 357 3.0 7.0 0.00 0.00 0.00 81 1022.2
20260506195647 59 349 0.0 8.0 0.00 0.00 0.00 79 1022.3
20260506195143 61 0 3.0 5.0 0.00 0.00 0.00 77 1022.2
20260506194641 63 26 3.0 3.0 0.00 0.00 0.00 73 1022.2
20260506194137 62 103 0.0 4.0 0.00 0.00 0.00 75 1022.1
20260506193635 61 342 0.0 3.0 0.00 0.00 0.00 81 1022.5
20260506193132 59 19 4.0 5.0 0.00 0.00 0.00 82 1022.0
20260506192629 59 3 3.0 3.0 0.00 0.00 0.00 81 1022.4
20260506192125 59 16 2.0 4.0 0.00 0.00 0.00 81 1022.5
20260506191622 59 345 3.0 3.0 0.00 0.00 0.00 81 1022.5
20260506191117 59 0 2.0 4.0 0.00 0.00 0.00 81 1022.5
20260506190615 60 18 2.0 3.0 0.00 0.00 0.00 81 1022.4
20260506190112 60 120 5.0 6.0 0.00 0.00 0.00 80 1022.4
20260506185609 60 115 2.0 3.0 0.00 0.00 0.00 80 1022.4
20260506185105 60 0 1.0 3.0 0.00 0.00 0.00 81 1022.4
20260506184603 60 117 4.0 4.0 0.00 0.00 0.00 81 1022.2
20260506184100 59 95 2.0 3.0 0.00 0.00 0.00 82 1022.3
20260506183556 59 97 3.0 4.0 0.00 0.00 0.00 83 1022.4
20260506183052 59 123 4.0 4.0 0.00 0.00 0.00 83 1022.3
20260506182550 59 90 2.0 4.0 0.00 0.00 0.00 84 1022.3
20260506182047 59 90 2.0 4.0 0.00 0.00 0.00 83 1022.4
20260506181545 58 50 2.0 5.0 0.00 0.00 0.00 84 1022.6
20260506181041 57 90 2.0 3.0 0.00 0.00 0.00 85 1022.4
20260506180538 57 79 3.0 3.0 0.00 0.00 0.00 86 1022.5
20260506180035 57 99 0.0 2.0 0.00 0.00 0.00 87 1022.5
20260506175531 56 45 2.0 3.0 0.00 0.00 0.00 87 1022.5
20260506175028 55 114 0.0 1.0 0.00 0.00 0.00 88 1022.6
20260506174527 55 4 2.0 2.0 0.00 0.00 0.00 88 1022.7
20260506174022 55 294 0.0 2.0 0.00 0.00 0.00 88 1022.6
20260506173520 55 5 0.0 2.0 0.00 0.00 0.00 88 1022.8
20260506173017 55 29 0.0 2.0 0.00 0.00 0.00 89 1022.8
20260506172514 55 7 1.0 2.0 0.00 0.00 0.00 88 1022.7
20260506172010 55 0 1.0 2.0 0.00 0.00 0.00 89 1022.8
20260506171507 55 356 2.0 2.0 0.00 0.00 0.00 89 1022.6
20260506171004 55 0 0.0 1.0 0.00 0.00 0.00 88 1022.4
20260506170501 55 0 0.0 2.0 0.00 0.00 0.00 88 1022.5
20260506165954 55 82 0.0 2.0 0.00 0.00 0.00 88 1022.5
20260506165452 55 29 2.0 2.0 0.00 0.00 0.00 88 1022.6
20260506164948 54 8 0.0 0.0 0.00 0.00 0.00 89 1022.5
20260506164445 54 15 2.0 2.0 0.00 0.00 0.00 89 1022.6
20260506163943 54 0 0.0 2.0 0.00 0.00 0.00 89 1022.3
20260506163438 53 69 1.0 2.0 0.00 0.00 0.00 90 1022.3
20260506162932 53 172 0.0 3.0 0.00 0.00 0.00 90 1022.4
20260506162430 53 201 2.0 2.0 0.00 0.00 0.00 90 1022.3
20260506161922 53 66 0.0 2.0 0.00 0.00 0.00 90 1022.5
20260506161420 53 0 0.0 2.0 0.00 0.00 0.00 90 1022.7
20260506160917 53 0 1.0 2.0 0.00 0.00 0.00 90 1022.5
20260506160414 53 0 0.0 2.0 0.00 0.00 0.00 91 1022.4
20260506155912 53 14 1.0 2.0 0.00 0.00 0.00 90 1022.5
20260506155409 53 8 0.0 0.0 0.00 0.00 0.00 90 1022.4
20260506153531 53 8 0.0 0.0 0.00 0.00 0.00 91 1022.3
20260506153028 53 90 0.0 2.0 0.00 0.00 0.00 91 1022.2
20260506152525 52 0 0.0 3.0 0.00 0.00 0.00 92 1022.4
20260506152023 52 15 0.0 2.0 0.00 0.00 0.00 92 1022.3
20260506151521 52 36 0.0 2.0 0.00 0.00 0.00 92 1022.5
20260506151018 52 337 0.0 3.0 0.00 0.00 0.00 92 1022.4
20260506150514 52 8 2.0 2.0 0.00 0.00 0.00 92 1022.0
20260506150011 53 348 1.0 3.0 0.00 0.00 0.00 93 1022.4
20260506145508 53 352 0.0 0.0 0.00 0.00 0.00 93 1021.8
20260506145005 52 6 1.0 2.0 0.00 0.00 0.00 92 1021.9
20260506144502 52 74 0.0 1.0 0.00 0.00 0.00 92 1021.6
20260506143959 52 23 0.0 0.0 0.00 0.00 0.00 92 1021.8
20260506143456 52 90 0.0 1.0 0.00 0.00 0.00 92 1021.8
20260506142955 52 23 0.0 2.0 0.00 0.00 0.00 92 1022.1
20260506142452 52 69 1.0 2.0 0.00 0.00 0.00 93 1022.0
20260506141950 52 77 1.0 2.0 0.00 0.00 0.00 93 1022.0
20260506141448 52 36 0.0 2.0 0.00 0.00 0.00 92 1022.0
20260506140946 52 63 1.0 2.0 0.00 0.00 0.00 93 1021.9
20260506140443 52 90 1.0 2.0 0.00 0.00 0.00 93 1022.1
20260506135939 52 90 1.0 1.0 0.00 0.00 0.00 93 1022.3
20260506135437 52 26 0.0 2.0 0.00 0.00 0.00 93 1022.4
20260506134933 52 40 2.0 2.0 0.00 0.00 0.00 94 1022.1
20260506134429 52 90 0.0 2.0 0.00 0.00 0.00 94 1021.9
20260506133926 52 66 0.0 2.0 0.00 0.00 0.00 94 1022.0
20260506133423 52 54 0.0 1.0 0.00 0.00 0.00 94 1021.9
20260506132920 52 41 2.0 2.0 0.00 0.00 0.00 94 1021.9
20260506132417 52 57 1.0 2.0 0.00 0.00 0.00 94 1021.8
20260506131914 52 66 1.0 2.0 0.00 0.00 0.00 94 1021.7
20260506131411 52 81 0.0 2.0 0.00 0.00 0.00 94 1021.6
20260506130908 52 90 1.0 2.0 0.00 0.00 0.00 94 1021.6
20260506130404 52 90 1.0 2.0 0.00 0.00 0.00 94 1021.6
20260506125902 52 69 0.0 1.0 0.00 0.00 0.00 94 1021.7
20260506125400 52 81 0.0 2.0 0.00 0.00 0.00 94 1021.7
20260506124858 52 60 1.0 2.0 0.00 0.00 0.00 93 1021.5
20260506124355 52 90 0.0 1.0 0.00 0.00 0.00 94 1021.5
20260506123853 52 82 0.0 1.0 0.00 0.00 0.00 94 1021.5
20260506123351 52 74 1.0 2.0 0.00 0.00 0.00 94 1021.3
20260506122848 52 54 0.0 2.0 0.00 0.00 0.00 94 1021.5
20260506122345 52 90 0.0 1.0 0.00 0.00 0.00 94 1021.1
20260506121843 52 60 1.0 2.0 0.00 0.00 0.00 94 1021.4
20260506121340 52 54 0.0 2.0 0.00 0.00 0.00 94 1021.2
20260506120837 52 32 0.0 1.0 0.00 0.00 0.00 94 1021.2
20260506120334 52 54 0.0 2.0 0.00 0.00 0.00 93 1021.2
20260506115832 52 105 0.0 1.0 0.00 0.00 0.00 94 1021.2
20260506115330 52 60 0.0 2.0 0.00 0.00 0.00 94 1021.3
20260506114828 52 90 1.0 2.0 0.00 0.00 0.00 94 1021.3
20260506114325 52 65 2.0 2.0 0.00 0.00 0.00 94 1021.2
20260506113824 52 96 2.0 2.0 0.00 0.00 0.00 94 1021.2
20260506113321 52 96 2.0 2.0 0.00 0.00 0.00 94 1021.2
20260506112817 52 90 1.0 2.0 0.00 0.00 0.00 94 1021.4
20260506112314 52 84 1.0 2.0 0.00 0.00 0.00 95 1021.1
20260506111812 52 83 1.0 2.0 0.00 0.00 0.00 95 1021.1
20260506111310 52 90 1.0 2.0 0.00 0.00 0.00 95 1021.3
20260506110807 52 90 1.0 2.0 0.00 0.00 0.00 96 1021.2
20260506110304 52 66 2.0 2.0 0.00 0.00 0.00 96 1021.0
20260506105800 52 82 1.0 2.0 0.00 0.00 0.00 96 1020.9
20260506105257 51 82 1.0 1.0 0.00 0.00 0.00 96 1020.9
20260506104755 51 90 1.0 2.0 0.00 0.00 0.00 96 1020.7
20260506104253 51 49 2.0 2.0 0.00 0.00 0.00 96 1020.9
20260506103750 51 99 0.0 1.0 0.00 0.00 0.00 96 1020.6
20260506103247 51 74 0.0 1.0 0.00 0.00 0.00 96 1020.6
20260506102744 51 60 0.0 0.0 0.00 0.00 0.00 96 1020.6
20260506102243 51 29 0.0 0.0 0.00 0.00 0.00 96 1020.6
20260506101739 51 29 0.0 0.0 0.00 0.00 0.00 96 1020.4
20260506101236 51 32 0.0 1.0 0.00 0.00 0.00 95 1020.3
20260506100734 51 45 0.0 2.0 0.00 0.00 0.00 96 1020.6
20260506100231 51 60 1.0 2.0 0.00 0.00 0.00 96 1020.3
20260506095730 51 23 1.0 1.0 0.00 0.00 0.00 96 1020.4
20260506095226 51 81 0.0 0.0 0.00 0.00 0.00 96 1020.4
20260506094723 51 75 0.0 1.0 0.00 0.00 0.00 96 1020.2
20260506094221 51 77 0.0 1.0 0.00 0.00 0.00 96 1020.4
20260506093720 51 75 0.0 1.0 0.00 0.00 0.00 96 1020.5
20260506093216 50 74 0.0 1.0 0.00 0.00 0.00 96 1020.5
20260506092714 50 81 0.0 2.0 0.00 0.00 0.00 96 1020.4
20260506092212 50 41 0.0 2.0 0.00 0.00 0.00 96 1020.2
20260506091709 50 81 0.0 1.0 0.00 0.00 0.00 96 1020.3
20260506091206 50 74 0.0 0.0 0.00 0.00 0.00 96 1020.2
20260506090704 50 74 0.0 0.0 0.00 0.00 0.00 96 1020.3
20260506090201 50 74 0.0 0.0 0.00 0.00 0.00 96 1020.3
20260506085658 50 75 0.0 1.0 0.00 0.00 0.00 96 1020.2
20260506085153 50 35 0.0 0.0 0.00 0.00 0.00 96 1020.2
20260506084650 50 74 0.0 0.0 0.00 0.00 0.00 96 1020.1
20260506084147 50 60 0.0 0.0 0.00 0.00 0.00 96 1020.2
20260506083644 49 75 0.0 1.0 0.00 0.00 0.00 96 1020.1
20260506083142 49 75 0.0 1.0 0.00 0.00 0.00 95 1020.1
20260506082639 49 66 0.0 1.0 0.00 0.00 0.00 95 1020.2
20260506082134 49 60 0.0 0.0 0.00 0.00 0.00 95 1020.2
20260506081632 49 74 0.0 1.0 0.00 0.00 0.00 95 1020.0
20260506081130 49 63 1.0 1.0 0.00 0.00 0.00 95 1019.9
20260506080627 49 60 0.0 1.0 0.00 0.00 0.00 95 1020.0
20260506080124 49 45 0.0 2.0 0.00 0.00 0.00 95 1019.9
20260506073108 50 29 1.0 2.0 0.00 0.00 0.00 94 1019.6
20260506072604 50 105 1.0 1.0 0.00 0.00 0.00 95 1019.6
20260506072102 50 74 0.0 1.0 0.00 0.00 0.00 95 1019.6
20260506071559 50 75 1.0 1.0 0.00 0.00 0.00 95 1019.5
20260506071057 51 60 0.0 2.0 0.00 0.00 0.00 96 1019.4
20260506070554 51 78 1.0 1.0 0.00 0.00 0.00 96 1019.4
20260506062028 51 78 1.0 2.0 0.00 0.00 0.00 94 1018.8
20260506061523 51 63 0.0 1.0 0.00 0.00 0.00 94 1019.0
20260506061021 51 54 0.0 0.0 0.00 0.00 0.00 94 1018.8
20260506060520 51 82 0.0 0.0 0.00 0.00 0.00 93 1019.0
20260506050948 53 75 1.0 2.0 0.00 0.00 0.00 92 1018.8
20260506050446 53 74 0.0 0.0 0.00 0.00 0.00 92 1018.7
20260506044936 54 74 0.0 1.0 0.00 0.00 0.00 91 1018.8
20260506044435 54 74 0.0 1.0 0.00 0.00 0.00 90 1018.5
20260506043931 55 82 1.0 1.0 0.00 0.00 0.00 90 1018.4
20260506043429 55 60 0.0 2.0 0.00 0.00 0.00 90 1018.4
20260506042926 55 90 0.0 0.0 0.00 0.00 0.00 89 1018.5
20260506042426 55 90 0.0 1.0 0.00 0.00 0.00 89 1018.5
20260506041923 56 66 0.0 0.0 0.00 0.00 0.00 88 1018.5
20260506041421 56 66 0.0 0.0 0.00 0.00 0.00 88 1018.6
20260506040918 57 35 0.0 1.0 0.00 0.00 0.00 87 1018.5